CW8968 Weather Reports


Display with metric or nautical units.
time (UTC)temp
F
wind
direction
speed
MPH
gust
MPH
rain 1hr
in
rain 24hr
in
rain mn
in
humidity
%
barometer
mb
20260507033954 40 5 4.0 12.0 0.00 0.00 0.00 94 1007.7
20260507033453 40 355 2.0 12.0 0.00 0.00 0.00 94 1007.6
20260507032954 40 5 1.0 6.0 0.00 0.00 0.00 93 1007.6
20260507032452 40 5 2.0 9.0 0.00 0.00 0.00 93 1007.6
20260507031950 40 5 4.0 11.0 0.00 0.00 0.00 93 1007.5
20260507031450 40 9 5.0 11.0 0.00 0.00 0.00 93 1007.4
20260507030950 40 13 5.0 10.0 0.00 0.00 0.00 93 1007.6
20260507030452 40 10 5.0 9.0 0.00 0.00 0.00 93 1007.5
20260507025951 40 13 5.0 9.0 0.00 0.00 0.00 92 1007.4
20260507025450 41 13 5.0 11.0 0.00 0.00 0.00 93 1007.3
20260507025222 41 5 6.0 12.0 0.00 0.00 0.00 93 1007.4
20260507024451 41 5 5.0 12.0 0.00 0.00 0.00 93 1007.3
20260507023951 41 355 6.0 12.0 0.00 0.00 0.00 93 1007.4
20260507023451 41 0 6.0 12.0 0.00 0.00 0.00 93 1007.3
20260507023222 41 12 5.0 12.0 0.00 0.00 0.00 93 1007.5
20260507022452 42 5 5.0 14.0 0.00 0.00 0.00 93 1007.4
20260507021950 42 342 5.0 14.0 0.00 0.00 0.00 93 1007.3
20260507021442 42 355 6.0 12.0 0.00 0.00 0.00 93 1007.2
20260507021212 42 355 6.0 12.0 0.00 0.00 0.00 93 1007.0
20260507020440 42 5 6.0 14.0 0.00 0.00 0.00 93 1007.4
20260507015940 42 11 7.0 14.0 0.00 0.00 0.00 94 1007.4
20260507015441 42 355 6.0 12.0 0.00 0.00 0.00 94 1007.2
20260507014939 41 355 5.0 10.0 0.00 0.00 0.00 94 1007.2
20260507014439 41 11 5.0 10.0 0.00 0.00 0.00 94 1006.9
20260507013942 41 9 5.0 11.0 0.00 0.00 0.00 94 1007.0
20260507013447 41 0 4.0 11.0 0.00 0.00 0.00 94 1007.0
20260507012939 41 5 4.0 12.0 0.00 0.00 0.00 94 1007.0
20260507012440 41 0 4.0 12.0 0.00 0.00 0.00 95 1007.0
20260507011942 40 355 2.0 9.0 0.00 0.00 0.00 94 1007.1
20260507011938 40 12 3.0 12.0 0.00 0.00 0.00 94 1007.0
20260507010941 40 355 1.0 6.0 0.00 0.00 0.00 93 1006.8
20260507010439 40 355 0.0 4.0 0.00 0.00 0.00 93 1006.8
20260507005935 40 355 0.0 2.0 0.00 0.00 0.00 93 1006.9
20260507005432 40 355 0.0 4.0 0.00 0.00 0.00 93 1006.9
20260507004931 40 355 0.0 4.0 0.00 0.00 0.00 93 1006.8
20260507004430 41 355 0.0 0.0 0.00 0.00 0.00 93 1006.9
20260507003929 41 355 0.0 4.0 0.00 0.00 0.00 93 1006.8
20260507003428 41 355 0.0 4.0 0.00 0.00 0.00 93 1006.7
20260507002926 41 355 0.0 9.0 0.00 0.00 0.00 93 1007.0
20260507002426 41 355 1.0 9.0 0.00 0.00 0.00 93 1006.9
20260507001926 41 355 1.0 8.0 0.00 0.00 0.00 93 1006.8
20260507001433 42 0 0.0 4.0 0.00 0.00 0.00 93 1006.7
20260507001428 42 355 1.0 8.0 0.00 0.00 0.00 93 1006.9
20260507000427 42 0 0.0 7.0 0.00 0.00 0.00 93 1006.9
20260506235926 42 0 1.0 7.0 0.00 0.00 0.00 92 1006.8
20260506235427 42 0 1.0 5.0 0.00 0.00 0.00 92 1006.9
20260506234925 42 0 0.0 5.0 0.00 0.00 0.00 92 1006.8
20260506234658 42 9 0.0 2.0 0.00 0.00 0.00 92 1006.9
20260506233916 42 9 1.0 5.0 0.00 0.00 0.00 92 1006.8
20260506233415 43 9 1.0 7.0 0.00 0.00 0.00 92 1006.8
20260506232913 43 9 2.0 7.0 0.00 0.00 0.00 92 1006.8
20260506232647 43 5 4.0 8.0 0.00 0.00 0.00 92 1006.8
20260506231914 43 9 5.0 11.0 0.00 0.00 0.00 92 1006.7
20260506231412 43 355 5.0 11.0 0.00 0.00 0.00 92 1006.7
20260506230915 43 0 5.0 10.0 0.00 0.00 0.00 92 1006.8
20260506230406 43 0 6.0 10.0 0.00 0.00 0.00 92 1006.8
20260506225858 43 0 6.0 10.0 0.00 0.00 0.00 92 1007.0
20260506225354 43 0 6.0 11.0 0.00 0.00 0.00 92 1006.8
20260506225127 43 5 6.0 11.0 0.00 0.00 0.00 91 1006.7
20260506224354 44 5 6.0 11.0 0.00 0.00 0.00 91 1006.5
20260506223853 44 9 7.0 10.0 0.00 0.00 0.00 91 1006.7
20260506223350 44 5 7.0 13.0 0.00 0.00 0.00 91 1006.7
20260506223121 44 21 7.0 13.0 0.00 0.00 0.00 91 1006.7
20260506222350 44 20 8.0 14.0 0.00 0.00 0.00 90 1006.6
20260506221850 44 11 7.0 14.0 0.00 0.00 0.00 90 1006.6
20260506221351 44 0 7.0 14.0 0.00 0.00 0.00 90 1007.0
20260506220850 45 0 7.0 12.0 0.00 0.00 0.00 90 1006.7
20260506220352 45 0 6.0 12.0 0.00 0.00 0.00 90 1006.6
20260506215850 45 0 6.0 11.0 0.00 0.00 0.00 89 1006.6
20260506215350 45 9 7.0 12.0 0.00 0.00 0.00 89 1006.6
20260506214851 45 5 8.0 14.0 0.00 0.00 0.00 88 1006.8
20260506214355 46 5 10.0 17.0 0.00 0.00 0.00 88 1006.7
20260506213853 46 10 11.0 17.0 0.00 0.00 0.00 88 1006.5
20260506213625 46 0 8.0 17.0 0.00 0.00 0.00 88 1006.6
20260506212850 47 5 8.0 16.0 0.00 0.00 0.00 88 1006.5
20260506212616 47 17 9.0 16.0 0.00 0.00 0.00 88 1006.4
20260506211841 47 11 9.0 16.0 0.00 0.00 0.00 88 1006.4
20260506211341 47 9 10.0 18.0 0.00 0.00 0.00 87 1006.1
20260506210845 48 0 11.0 20.0 0.00 0.00 0.00 87 1006.3
20260506210841 47 5 11.0 20.0 0.00 0.00 0.00 87 1006.3
20260506205840 48 9 11.0 17.0 0.00 0.00 0.00 87 1006.3
20260506205340 48 0 10.0 16.0 0.00 0.00 0.00 87 1006.4
20260506204840 48 0 8.0 16.0 0.00 0.00 0.00 87 1006.5
20260506204341 48 14 7.0 14.0 0.00 0.00 0.00 86 1006.1
20260506203840 48 15 7.0 13.0 0.00 0.00 0.00 86 1006.4
20260506203339 48 9 7.0 12.0 0.00 0.00 0.00 85 1006.1
20260506202840 48 12 7.0 14.0 0.00 0.00 0.00 85 1006.2
20260506202340 49 5 8.0 14.0 0.00 0.00 0.00 84 1006.1
20260506201842 49 9 9.0 16.0 0.00 0.00 0.00 83 1006.2
20260506201340 49 13 9.0 17.0 0.00 0.00 0.00 83 1006.2
20260506200842 49 22 8.0 17.0 0.00 0.00 0.00 83 1006.1
20260506200341 49 9 8.0 14.0 0.00 0.00 0.00 83 1006.1
20260506195842 49 5 11.0 16.0 0.00 0.00 0.00 83 1006.1
20260506195339 49 0 12.0 23.0 0.00 0.00 0.00 83 1005.8
20260506194839 49 350 9.0 23.0 0.00 0.00 0.00 83 1005.9
20260506194354 49 19 6.0 12.0 0.00 0.00 0.00 83 1005.8
20260506194350 49 16 6.0 14.0 0.00 0.00 0.00 83 1005.8
20260506193340 50 30 7.0 13.0 0.00 0.00 0.00 82 1006.0
20260506192834 50 22 9.0 17.0 0.00 0.00 0.00 82 1005.7
20260506192323 50 26 11.0 17.0 0.00 0.00 0.00 82 1005.8
20260506191824 50 19 12.0 20.0 0.00 0.00 0.00 81 1005.8
20260506191547 51 10 14.0 20.0 0.00 0.00 0.00 81 1005.6
20260506191044 51 25 15.0 20.0 0.00 0.00 0.00 80 1005.5
20260506190319 51 28 14.0 26.0 0.00 0.00 0.00 80 1005.6
20260506185755 51 5 14.0 23.0 0.00 0.00 0.00 80 1005.6
20260506185251 51 5 15.0 24.0 0.00 0.00 0.00 80 1005.4
20260506184746 52 26 14.0 24.0 0.00 0.00 0.00 80 1005.1
20260506184240 52 17 10.0 19.0 0.00 0.00 0.00 80 1005.4
20260506183740 52 16 7.0 19.0 0.00 0.00 0.00 81 1005.2
20260506183240 52 5 4.0 12.0 0.00 0.00 0.00 80 1005.2
20260506182740 52 57 1.0 9.0 0.00 0.00 0.00 81 1005.1
20260506182238 52 57 0.0 4.0 0.00 0.00 0.00 81 1005.1
20260506181737 52 57 1.0 4.0 0.00 0.00 0.00 81 1005.1
20260506181234 52 57 1.0 4.0 0.00 0.00 0.00 81 1005.0
20260506180733 52 57 1.0 4.0 0.00 0.00 0.00 81 1004.8
20260506180231 52 57 2.0 5.0 0.00 0.00 0.00 80 1004.8
20260506180000 52 57 3.0 5.0 0.00 0.00 0.00 79 1004.5
20260506175232 52 57 2.0 5.0 0.00 0.00 0.00 78 1004.6
20260506174730 53 57 2.0 5.0 0.00 0.00 0.00 78 1004.5
20260506174231 53 57 3.0 7.0 0.00 0.00 0.00 78 1004.6
20260506173727 53 57 3.0 7.0 0.00 0.00 0.00 78 1004.3
20260506173227 53 57 3.0 9.0 0.00 0.00 0.00 77 1004.4
20260506172726 53 57 4.0 9.0 0.00 0.00 0.00 77 1004.8
20260506172228 53 58 3.0 8.0 0.00 0.00 0.00 77 1004.5
20260506171956 53 58 3.0 7.0 0.00 0.00 0.00 76 1004.3
20260506171231 53 58 4.0 3.0 0.00 0.00 0.00 76 1004.4
20260506171015 53 58 4.0 2.0 0.00 0.00 0.00 77 1004.2
20260506170631 53 0.0 0.0 0.00 0.00 0.00 76 1004.5
20260506165445 0 0.0 0.0 0.00 0.00 0.00 1004.4
20260506165130 53 64 4.0 10.0 0.00 0.00 0.00 76
20260506164358 53 82 3.0 9.0 0.00 0.00 0.00 77
20260506163858 53 82 4.0 9.0 0.00 0.00 0.00 76
20260506163357 53 82 3.0 7.0 0.00 0.00 0.00 76
20260506162856 53 57 2.0 7.0 0.00 0.00 0.00 77
20260506162356 53 55 3.0 8.0 0.00 0.00 0.00 77
20260506161856 53 55 5.0 12.0 0.00 0.00 0.00 77
20260506161354 54 55 5.0 12.0 0.00 0.00 0.00 78
20260506160852 53 59 5.0 11.0 0.00 0.00 0.00 77
20260506160353 53 70 6.0 14.0 0.00 0.00 0.00 75
20260506155853 53 57 5.0 14.0 0.00 0.00 0.00 76
20260506155352 53 46 4.0 11.0 0.00 0.00 0.00 76
20260506154853 53 68 5.0 14.0 0.00 0.00 0.00 76
20260506154352 53 100 5.0 14.0 0.00 0.00 0.00 75
20260506153855 53 82 5.0 10.0 0.00 0.00 0.00 75
20260506153351 53 78 6.0 15.0 0.00 0.00 0.00 75
20260506152850 53 71 8.0 17.0 0.00 0.00 0.00 75
20260506152352 53 67 10.0 20.0 0.00 0.00 0.00 74
20260506151850 54 78 10.0 20.0 0.00 0.00 0.00 74
20260506151350 54 55 9.0 18.0 0.00 0.00 0.00 74
20260506150850 54 62 8.0 17.0 0.00 0.00 0.00 74
20260506150349 54 70 9.0 17.0 0.00 0.00 0.00 75
20260506150122 54 47 11.0 18.0 0.00 0.00 0.00 76
20260506150118 54 78 10.0 17.0 0.00 0.00 0.00 75
20260506144841 53 49 13.0 20.0 0.00 0.00 0.00 75
20260506144340 54 73 12.0 20.0 0.00 0.00 0.00 75
20260506143842 54 74 10.0 23.0 0.00 0.00 0.00 76
20260506143341 54 88 11.0 23.0 0.00 0.00 0.00 76
20260506142840 53 78 12.0 21.0 0.00 0.00 0.00 75
20260506142340 53 66 13.0 23.0 0.00 0.00 0.00 75
20260506141846 53 69 12.0 23.0 0.00 0.00 0.00 75
20260506141840 53 48 12.0 23.0 0.00 0.00 0.00 76
20260506141109 53 55 11.0 23.0 0.00 0.00 0.00 75
20260506140338 53 63 10.0 18.0 0.00 0.00 0.00 75
20260506135839 53 46 10.0 21.0 0.00 0.00 0.00 75
20260506135336 53 55 12.0 21.0 0.00 0.00 0.00 75
20260506134836 53 48 11.0 23.0 0.00 0.00 0.00 75
20260506134336 53 74 11.0 23.0 0.00 0.00 0.00 74
20260506134105 53 57 11.0 19.0 0.00 0.00 0.00 74
20260506133328 53 60 12.0 20.0 0.00 0.00 0.00 75
20260506132820 52 59 13.0 23.0 0.00 0.00 0.00 75
20260506132316 52 52 10.0 23.0 0.00 0.00 0.00 76
20260506131816 52 55 8.0 20.0 0.00 0.00 0.00 75
20260506131317 52 69 8.0 20.0 0.00 0.00 0.00 75
20260506130816 52 90 8.0 17.0 0.00 0.00 0.00 73
20260506130317 52 66 10.0 25.0 0.00 0.00 0.00 73
20260506125815 52 58 11.0 25.0 0.00 0.00 0.00 72
20260506125544 53 57 9.0 23.0 0.00 0.00 0.00 72
20260506124813 53 72 10.0 23.0 0.00 0.00 0.00 72
20260506124544 53 51 13.0 27.0 0.00 0.00 0.00 74
20260506123813 52 59 14.0 30.0 0.00 0.00 0.00 71
20260506123540 52 65 15.0 30.0 0.00 0.00 0.00 71
20260506122810 53 71 16.0 31.0 0.00 0.00 0.00 71
20260506122310 53 42 17.0 31.0 0.00 0.00 0.00 71
20260506121809 53 68 20.0 34.0 0.00 0.00 0.00 74
20260506121308 52 36 20.0 34.0 0.00 0.00 0.00 74
20260506120811 52 38 19.0 28.0 0.00 0.00 0.00 73
20260506120259 52 51 17.0 28.0 0.00 0.00 0.00 75
20260506115751 52 38 14.0 24.0 0.00 0.00 0.00 76
20260506115242 52 62 13.0 27.0 0.00 0.00 0.00 77
20260506114737 52 70 15.0 27.0 0.00 0.00 0.00 77
20260506114502 52 61 17.0 27.0 0.00 0.00 0.00 77
20260506113719 52 55 16.0 27.0 0.00 0.00 0.00 77
20260506113216 52 48 14.0 27.0 0.00 0.00 0.00 76
20260506112710 52 67 14.0 25.0 0.00 0.00 0.00 76
20260506112433 52 44 14.0 21.0 0.00 0.00 0.00 77
20260506111651 52 58 12.0 22.0 0.00 0.00 0.00 76
20260506111150 52 28 15.0 26.0 0.00 0.00 0.00 76
20260506110636 51 44 15.0 26.0 0.00 0.00 0.00 75
20260506110125 51 46 15.0 24.0 0.00 0.00 0.00 75
20260506105616 51 42 16.0 24.0 0.00 0.00 0.00 74
20260506105117 51 78 17.0 29.0 0.00 0.00 0.00 76
20260506104616 51 63 17.0 29.0 0.00 0.00 0.00 75
20260506104116 51 54 16.0 27.0 0.00 0.00 0.00 76
20260506103616 51 57 17.0 27.0 0.00 0.00 0.00 75
20260506103346 51 24 17.0 27.0 0.00 0.00 0.00 75
20260506102846 51 61 19.0 30.0 0.00 0.00 0.00 74
20260506102115 51 51 21.0 35.0 0.00 0.01 0.00 74
20260506101618 51 53 20.0 35.0 0.00 0.01 0.00 74
20260506101112 51 61 19.0 30.0 0.00 0.01 0.00 74
20260506100611 51 43 19.0 32.0 0.00 0.01 0.00 74
20260506100119 51 47 19.0 32.0 0.00 0.01 0.00 74
20260506095842 51 50 19.0 30.0 0.00 0.01 0.00 74
20260506095112 51 61 18.0 27.0 0.00 0.01 0.00 75
20260506094612 51 43 18.0 29.0 0.00 0.01 0.00 74
20260506094111 51 52 18.0 31.0 0.00 0.01 0.00 73
20260506093613 51 52 20.0 33.0 0.00 0.01 0.00 73
20260506093113 51 51 20.0 33.0 0.00 0.01 0.00 72
20260506092607 51 62 18.0 30.0 0.00 0.01 0.00 73
20260506092108 51 42 15.0 30.0 0.00 0.01 0.00 73
20260506091607 51 39 16.0 28.0 0.00 0.01 0.00 76
20260506091109 51 28 17.0 28.0 0.00 0.01 0.00 74
20260506090607 51 32 15.0 24.0 0.00 0.01 0.00 76
20260506090107 51 23 16.0 24.0 0.00 0.01 0.00 75
20260506085608 51 32 17.0 26.0 0.00 0.01 0.00 76
20260506085340 51 40 17.0 27.0 0.00 0.01 0.00 75
20260506084609 51 26 17.0 27.0 0.00 0.01 0.00 76
20260506084102 51 59 17.0 29.0 0.00 0.01 0.00 77
20260506083551 51 47 15.0 29.0 0.00 0.01 0.00 78
20260506083053 51 0 14.0 26.0 0.00 0.01 0.00 78
20260506082552 51 49 14.0 26.0 0.00 0.01 0.00 79
20260506082051 51 35 14.0 24.0 0.00 0.01 0.00 79
20260506081552 51 28 16.0 34.0 0.00 0.01 0.00 81
20260506081053 51 28 17.0 34.0 0.00 0.01 0.00 79
20260506080552 51 44 16.0 28.0 0.00 0.01 0.00 80
20260506073513 50 42 13.0 24.0 0.00 0.01 0.00 85
20260506073013 50 30 14.0 24.0 0.00 0.01 0.00 85
20260506072513 50 13 16.0 27.0 0.00 0.01 0.00 84
20260506072015 50 11 16.0 27.0 0.00 0.01 0.00 84
20260506071514 50 15 16.0 29.0 0.00 0.01 0.00 84
20260506071014 50 21 14.0 29.0 0.00 0.01 0.00 84
20260506070513 50 29 15.0 25.0 0.00 0.01 0.00 84
20260506062417 50 23 13.0 20.0 0.00 0.01 0.00 84
20260506061917 50 19 13.0 20.0 0.00 0.01 0.00 84
20260506061419 50 38 12.0 20.0 0.00 0.01 0.00 84
20260506060917 50 5 11.0 20.0 0.00 0.01 0.00 84
20260506060417 50 26 12.0 19.0 0.00 0.01 0.00 84
20260506050902 49 37 9.0 15.0 0.00 0.01 0.00 86
20260506050353 49 50 9.0 17.0 0.00 0.01 0.00 86
20260506044833 49 32 10.0 18.0 0.00 0.01 0.00 86
20260506044327 49 22 11.0 18.0 0.00 0.01 0.00 86
20260506044320 49 24 12.0 19.0 0.00 0.01 0.00 86
20260506043314 49 34 12.0 19.0 0.00 0.01 0.00 87
20260506042803 49 17 13.0 20.0 0.00 0.01 0.00 87
20260506042532 49 26 13.0 20.0 0.00 0.01 0.00 88
20260506041800 50 22 13.0 18.0 0.00 0.01 0.00 88
20260506041307 49 15 14.0 23.0 0.00 0.01 0.00 88
20260506041302 49 22 14.0 18.0 0.00 0.01 0.00 88
20260506040530 49 22 14.0 23.0 0.00 0.01 0.00 89
20260506035802 49 18 13.0 19.0 0.00 0.01 0.00 89
20260506035306 49 23 13.0 21.0 0.00 0.01 0.00 90
20260506035300 49 20 12.0 19.0 0.00 0.01 0.00 90
20260506034300 49 24 14.0 21.0 0.00 0.01 0.00 90